| time (UTC) | temp F | wind direction | speed MPH | gust MPH | rain 1hr in | rain 24hr in | rain mn in | humidity % | barometer mb |
| 20260508034512 | 46 | 132 | 0.0 | 0.0 | 0.00 | 0.00 | 0.00 | 53 | 1009.0 |
| 20260508033014 | 47 | 132 | 0.0 | 0.0 | 0.00 | 0.00 | 0.00 | 51 | 1008.8 |
| 20260508031512 | 48 | 132 | 0.0 | 0.0 | 0.00 | 0.00 | 0.00 | 51 | 1008.6 |
| 20260508030012 | 48 | 132 | 0.0 | 0.0 | 0.00 | 0.00 | 0.00 | 50 | 1008.5 |
| 20260508024517 | 49 | 132 | 0.0 | 0.0 | 0.00 | 0.00 | 0.00 | 50 | 1008.3 |
| 20260508023012 | 49 | 132 | 0.0 | 0.0 | 0.00 | 0.00 | 0.00 | 51 | 1008.2 |
| 20260508021512 | 49 | 132 | 0.0 | 0.0 | 0.00 | 0.00 | 0.00 | 49 | 1007.9 |
| 20260508020010 | 50 | 132 | 0.0 | 0.0 | 0.00 | 0.00 | 0.00 | 49 | 1007.6 |
| 20260508014509 | 52 | 132 | 0.0 | 0.0 | 0.00 | 0.00 | 0.00 | 46 | 1007.4 |
| 20260508013008 | 53 | 132 | 0.0 | 0.0 | 0.00 | 0.00 | 0.00 | 44 | 1007.1 |
| 20260508011507 | 54 | 132 | 0.0 | 0.0 | 0.00 | 0.00 | 0.00 | 42 | 1007.0 |
| 20260508010007 | 56 | 132 | 0.0 | 0.0 | 0.00 | 0.00 | 0.00 | 39 | 1006.9 |
| 20260508004506 | 57 | 132 | 0.0 | 0.0 | 0.00 | 0.00 | 0.00 | 37 | 1006.8 |
| 20260508003006 | 58 | 132 | 0.0 | 0.0 | 0.00 | 0.00 | 0.00 | 35 | 1006.6 |
| 20260508001506 | 58 | 132 | 0.0 | 0.0 | 0.00 | 0.00 | 0.00 | 35 | 1006.5 |
| 20260508000006 | 59 | 132 | 0.0 | 0.0 | 0.00 | 0.00 | 0.00 | 33 | 1006.4 |
| 20260507234507 | 60 | 137 | 0.0 | 0.0 | 0.00 | 0.00 | 0.00 | 33 | 1006.3 |
| 20260507233008 | 61 | 103 | 0.0 | 0.0 | 0.00 | 0.00 | 0.00 | 33 | 1006.3 |
| 20260507231504 | 61 | 94 | 0.0 | 0.0 | 0.00 | 0.00 | 0.00 | 33 | 1006.2 |
| 20260507230005 | 61 | 87 | 1.0 | 0.0 | 0.00 | 0.00 | 0.00 | 33 | 1006.5 |
| 20260507224502 | 62 | 136 | 1.0 | 0.0 | 0.00 | 0.00 | 0.00 | 34 | 1006.4 |
| 20260507223003 | 62 | 99 | 1.0 | 0.0 | 0.00 | 0.00 | 0.00 | 33 | 1006.4 |
| 20260507221505 | 62 | 124 | 1.0 | 0.0 | 0.00 | 0.00 | 0.00 | 34 | 1006.4 |
| 20260507220002 | 62 | 179 | 0.0 | 0.0 | 0.00 | 0.00 | 0.00 | 36 | 1006.4 |
| 20260507214608 | 62 | 103 | 0.0 | 0.0 | 0.00 | 0.00 | 0.00 | 35 | 1006.4 |
| 20260507213103 | 62 | 187 | 1.0 | 0.0 | 0.00 | 0.00 | 0.00 | 36 | 1006.4 |
| 20260507211600 | 61 | 102 | 0.0 | 0.0 | 0.00 | 0.00 | 0.00 | 38 | 1006.4 |
| 20260507204552 | 59 | 88 | 0.0 | 0.0 | 0.00 | 0.00 | 0.00 | 42 | 1006.7 |
| 20260507203104 | 59 | 65 | 0.0 | 0.0 | 0.00 | 0.00 | 0.00 | 42 | 1006.9 |
| 20260507201558 | 60 | 173 | 1.0 | 0.0 | 0.00 | 0.00 | 0.00 | 43 | 1006.9 |
| 20260507200104 | 58 | 66 | 2.0 | 0.0 | 0.00 | 0.00 | 0.00 | 42 | 1007.0 |
| 20260507194547 | 59 | 49 | 2.0 | 0.0 | 0.00 | 0.00 | 0.00 | 44 | 1006.9 |
| 20260507193048 | 58 | 65 | 1.0 | 0.0 | 0.00 | 0.00 | 0.00 | 42 | 1007.2 |
| 20260507191544 | 58 | 352 | 1.0 | 0.0 | 0.00 | 0.00 | 0.00 | 42 | 1007.2 |
| 20260507190047 | 57 | 72 | 2.0 | 0.0 | 0.00 | 0.00 | 0.00 | 43 | 1007.6 |
| 20260507184547 | 57 | 60 | 3.0 | 0.0 | 0.00 | 0.00 | 0.00 | 43 | 1007.6 |
| 20260507183044 | 58 | 84 | 1.0 | 0.0 | 0.00 | 0.00 | 0.00 | 43 | 1007.8 |
| 20260507181537 | 57 | 72 | 0.0 | 0.0 | 0.00 | 0.00 | 0.00 | 42 | 1008.0 |
| 20260507180039 | 56 | 112 | 0.0 | 0.0 | 0.00 | 0.00 | 0.00 | 43 | 1008.2 |
| 20260507174537 | 55 | 105 | 0.0 | 0.0 | 0.00 | 0.00 | 0.00 | 43 | 1008.4 |
| 20260507173033 | 56 | 121 | 1.0 | 0.0 | 0.00 | 0.00 | 0.00 | 42 | 1008.6 |
| 20260507171530 | 56 | 52 | 0.0 | 0.0 | 0.00 | 0.00 | 0.00 | 40 | 1008.9 |
| 20260507170026 | 55 | 10 | 0.0 | 0.0 | 0.00 | 0.00 | 0.00 | 41 | 1009.2 |
| 20260507164525 | 54 | 20 | 0.0 | 0.0 | 0.00 | 0.00 | 0.00 | 43 | 1009.4 |
| 20260507163022 | 54 | 61 | 1.0 | 0.0 | 0.00 | 0.00 | 0.00 | 41 | 1009.8 |
| 20260507161520 | 53 | 210 | 0.0 | 0.0 | 0.00 | 0.00 | 0.00 | 43 | 1010.0 |
| 20260507160018 | 53 | 58 | 0.0 | 0.0 | 0.00 | 0.00 | 0.00 | 41 | 1010.2 |
| 20260507154514 | 52 | 37 | 0.0 | 0.0 | 0.00 | 0.00 | 0.00 | 44 | 1010.3 |
| 20260507153012 | 52 | 12 | 0.0 | 0.0 | 0.00 | 0.00 | 0.00 | 41 | 1010.4 |
| 20260507151509 | 51 | 40 | 0.0 | 0.0 | 0.00 | 0.00 | 0.00 | 46 | 1010.5 |
| 20260507150014 | 48 | 36 | 0.0 | 0.0 | 0.00 | 0.00 | 0.00 | 50 | 1010.7 |
| 20260507144503 | 47 | 51 | 0.0 | 0.0 | 0.00 | 0.00 | 0.00 | 52 | 1011.0 |
| 20260507143105 | 46 | 49 | 0.0 | 0.0 | 0.00 | 0.00 | 0.00 | 53 | 1011.3 |
| 20260507141555 | 45 | 339 | 0.0 | 0.0 | 0.00 | 0.00 | 0.00 | 57 | 1011.8 |
| 20260507140052 | 44 | 58 | 0.0 | 0.0 | 0.00 | 0.00 | 0.00 | 57 | 1011.8 |
| 20260507134551 | 45 | 344 | 0.0 | 0.0 | 0.00 | 0.00 | 0.00 | 55 | 1011.8 |
| 20260507133101 | 43 | 340 | 0.0 | 0.0 | 0.00 | 0.00 | 0.00 | 58 | 1012.1 |
| 20260507131551 | 43 | 343 | 0.0 | 0.0 | 0.00 | 0.00 | 0.00 | 62 | 1012.1 |
| 20260507130055 | 41 | 12 | 0.0 | 0.0 | 0.00 | 0.00 | 0.00 | 62 | 1012.2 |
| 20260507124538 | 40 | 106 | 0.0 | 0.0 | 0.00 | 0.00 | 0.00 | 66 | 1012.4 |
| 20260507123037 | 39 | 110 | 0.0 | 0.0 | 0.00 | 0.00 | 0.00 | 74 | 1012.4 |
| 20260507121536 | 38 | 110 | 0.0 | 0.0 | 0.00 | 0.00 | 0.00 | 75 | 1012.5 |
| 20260507120048 | 37 | 110 | 0.0 | 0.0 | 0.00 | 0.00 | 0.00 | 76 | 1012.5 |
| 20260507114602 | 37 | 110 | 0.0 | 0.0 | 0.00 | 0.00 | 0.00 | 77 | 1012.2 |
| 20260507113034 | 36 | 110 | 0.0 | 0.0 | 0.00 | 0.00 | 0.00 | 77 | 1012.1 |
| 20260507111535 | 36 | 110 | 0.0 | 0.0 | 0.00 | 0.00 | 0.00 | 77 | 1011.9 |
| 20260507110033 | 35 | 110 | 0.0 | 0.0 | 0.00 | 0.00 | 0.00 | 76 | 1011.8 |
| 20260507104531 | 34 | 110 | 0.0 | 0.0 | 0.00 | 0.00 | 0.00 | 76 | 1011.9 |
| 20260507103031 | 33 | 110 | 0.0 | 0.0 | 0.00 | 0.00 | 0.00 | 76 | 1011.9 |
| 20260507101531 | 33 | 110 | 0.0 | 0.0 | 0.00 | 0.00 | 0.00 | 76 | 1011.9 |
| 20260507100034 | 33 | 110 | 0.0 | 0.0 | 0.00 | 0.00 | 0.00 | 77 | 1011.9 |
| 20260507094528 | 32 | 110 | 0.0 | 0.0 | 0.00 | 0.00 | 0.00 | 77 | 1011.9 |
| 20260507093027 | 32 | 110 | 0.0 | 0.0 | 0.00 | 0.00 | 0.00 | 77 | 1012.0 |
| 20260507090034 | 33 | 110 | 0.0 | 0.0 | 0.00 | 0.00 | 0.00 | 77 | 1012.0 |
| 20260507084526 | 33 | 110 | 0.0 | 0.0 | 0.00 | 0.00 | 0.00 | 77 | 1012.1 |
| 20260507083029 | 33 | 110 | 0.0 | 0.0 | 0.00 | 0.00 | 0.00 | 77 | 1012.1 |
| 20260507081521 | 33 | 110 | 0.0 | 0.0 | 0.00 | 0.00 | 0.00 | 76 | 1012.0 |
| 20260507080023 | 33 | 110 | 0.0 | 0.0 | 0.00 | 0.00 | 0.00 | 76 | 1012.1 |
| 20260507074519 | 34 | 110 | 0.0 | 0.0 | 0.00 | 0.00 | 0.00 | 75 | 1012.2 |
| 20260507073017 | 34 | 110 | 0.0 | 0.0 | 0.00 | 0.00 | 0.00 | 74 | 1012.1 |
| 20260507071515 | 35 | 110 | 0.0 | 0.0 | 0.00 | 0.00 | 0.00 | 73 | 1012.4 |
| 20260507070014 | 35 | 110 | 0.0 | 0.0 | 0.00 | 0.00 | 0.00 | 72 | 1012.4 |
| 20260507064511 | 35 | 110 | 0.0 | 0.0 | 0.00 | 0.00 | 0.00 | 71 | 1012.6 |
| 20260507063010 | 35 | 110 | 0.0 | 0.0 | 0.00 | 0.00 | 0.00 | 71 | 1012.7 |
| 20260507061509 | 35 | 110 | 0.0 | 0.0 | 0.00 | 0.00 | 0.00 | 70 | 1012.6 |
| 20260507060009 | 35 | 110 | 0.0 | 0.0 | 0.00 | 0.00 | 0.00 | 70 | 1012.8 |
| 20260507054513 | 35 | 110 | 0.0 | 0.0 | 0.00 | 0.00 | 0.00 | 69 | 1012.9 |
| 20260507053004 | 36 | 110 | 0.0 | 0.0 | 0.00 | 0.00 | 0.00 | 68 | 1013.0 |
| 20260507051501 | 36 | 110 | 0.0 | 0.0 | 0.00 | 0.00 | 0.00 | 67 | 1013.0 |
| 20260507050058 | 37 | 110 | 0.0 | 0.0 | 0.00 | 0.00 | 0.00 | 67 | 1013.1 |
| 20260507044555 | 37 | 110 | 0.0 | 0.0 | 0.00 | 0.00 | 0.00 | 65 | 1013.3 |
| 20260507043053 | 38 | 110 | 0.0 | 0.0 | 0.00 | 0.00 | 0.00 | 63 | 1013.3 |
| 20260507041553 | 38 | 110 | 0.0 | 0.0 | 0.00 | 0.00 | 0.00 | 61 | 1013.4 |
| 20260507040053 | 39 | 110 | 0.0 | 0.0 | 0.00 | 0.00 | 0.00 | 61 | 1013.6 |